GW2924 Weather Reports


Display with metric or nautical units.
time (UTC)temp
F
wind
direction
speed
MPH
gust
MPH
rain 1hr
in
rain 24hr
in
rain mn
in
humidity
%
barometer
mb
20260505114057 36 186 0.0 1.0 0.00 0.00 0.00 71 1009.1
20260505113557 36 198 0.0 1.0 0.00 0.00 0.00 71 1009.0
20260505113118 36 250 0.0 1.0 0.00 0.00 0.00 72 1008.9
20260505112556 35 0 0.0 1.0 0.00 0.00 0.00 73 1008.8
20260505112056 35 0 0.0 1.0 0.00 0.00 0.00 73 1008.7
20260505111557 34 0 0.0 2.0 0.00 0.00 0.00 72 1008.6
20260505111056 34 240 0.0 2.0 0.00 0.00 0.00 73 1008.3
20260505110600 34 261 0.0 2.0 0.00 0.00 0.00 73 1008.3
20260505110105 34 248 0.0 2.0 0.00 0.00 0.00 73 1008.1
20260505102053 34 301 1.0 2.0 0.00 0.00 0.00 74 1007.9
20260505101558 33 0 1.0 2.0 0.00 0.00 0.00 74 1008.0
20260505101051 33 265 0.0 2.0 0.00 0.00 0.00 75 1007.9
20260505100553 33 0 0.0 1.0 0.00 0.00 0.00 75 1007.8
20260505100055 33 246 0.0 1.0 0.00 0.00 0.00 75 1007.9
20260505095552 33 0 0.0 1.0 0.00 0.00 0.00 75 1007.8
20260505095053 33 218 0.0 2.0 0.00 0.00 0.00 75 1007.8
20260505094625 33 203 0.0 2.0 0.00 0.00 0.00 75 1007.9
20260505094052 33 221 0.0 2.0 0.00 0.00 0.00 76 1007.8
20260505093552 32 200 0.0 2.0 0.00 0.00 0.00 77 1007.7
20260505093059 32 0 0.0 1.0 0.00 0.00 0.00 78 1007.7
20260505092552 31 193 0.0 2.0 0.00 0.00 0.00 78 1007.6
20260505092052 31 0 0.0 2.0 0.00 0.00 0.00 78 1007.6
20260505091605 31 200 0.0 2.0 0.00 0.00 0.00 78 1007.7
20260505091053 31 158 0.0 1.0 0.00 0.00 0.00 77 1007.7
20260505090552 32 0 0.0 1.0 0.00 0.00 0.00 77 1007.5
20260505085553 32 184 0.0 2.0 0.00 0.00 0.00 76 1007.5
20260505085052 32 0 1.0 2.0 0.00 0.00 0.00 75 1007.4
20260505084558 33 173 0.0 1.0 0.00 0.00 0.00 74 1007.4
20260505084051 33 0 0.0 2.0 0.00 0.00 0.00 73 1007.3
20260505083553 34 200 0.0 2.0 0.00 0.00 0.00 72 1007.1
20260505083102 35 191 0.0 2.0 0.00 0.00 0.00 71 1007.0
20260505082551 35 187 0.0 2.0 0.00 0.00 0.00 70 1006.9
20260505082051 36 0 0.0 2.0 0.00 0.00 0.00 69 1007.0
20260505081602 36 0 0.0 2.0 0.00 0.00 0.00 68 1006.8
20260505081051 36 280 0.0 2.0 0.00 0.00 0.00 68 1006.8
20260505080555 36 283 0.0 2.0 0.00 0.00 0.00 67 1006.8
20260505080056 36 323 1.0 3.0 0.00 0.00 0.00 67 1006.9
20260505075554 37 0 1.0 3.0 0.00 0.00 0.00 67 1006.9
20260505075054 37 319 1.0 3.0 0.00 0.00 0.00 66 1006.9
20260505074559 37 284 1.0 4.0 0.00 0.00 0.00 65 1006.8
20260505074055 37 309 1.0 4.0 0.00 0.00 0.00 65 1006.6
20260505073552 38 311 1.0 4.0 0.00 0.00 0.00 65 1006.7
20260505073103 38 313 1.0 4.0 0.00 0.00 0.00 64 1006.6
20260505072554 38 285 1.0 4.0 0.00 0.00 0.00 64 1006.7
20260505072059 38 312 1.0 4.0 0.00 0.00 0.00 64 1006.7
20260505071554 38 305 2.0 3.0 0.00 0.00 0.00 64 1006.7
20260505071055 38 302 2.0 4.0 0.00 0.00 0.00 64 1006.7
20260505070556 38 314 2.0 4.0 0.00 0.00 0.00 64 1006.8
20260505070055 38 305 2.0 4.0 0.00 0.00 0.00 63 1006.9
20260505065557 39 276 1.0 4.0 0.00 0.00 0.00 63 1006.9
20260505065058 39 294 2.0 4.0 0.00 0.00 0.00 63 1006.8
20260505064555 39 298 1.0 4.0 0.00 0.00 0.00 63 1006.8
20260505064056 39 307 2.0 3.0 0.00 0.00 0.00 62 1006.8
20260505063555 39 317 2.0 3.0 0.00 0.00 0.00 62 1006.8
20260505063059 39 307 1.0 3.0 0.00 0.00 0.00 62 1006.9
20260505062556 40 285 2.0 4.0 0.00 0.00 0.00 62 1006.8
20260505062057 40 309 2.0 4.0 0.00 0.00 0.00 61 1006.9
20260505061557 40 316 2.0 4.0 0.00 0.00 0.00 60 1006.8
20260505061056 40 298 2.0 5.0 0.00 0.00 0.00 61 1006.8
20260505060556 40 300 2.0 5.0 0.00 0.00 0.00 61 1006.9
20260505060059 39 319 2.0 4.0 0.00 0.00 0.00 62 1006.8
20260505055556 39 291 1.0 4.0 0.00 0.00 0.00 62 1006.8
20260505055058 39 296 2.0 4.0 0.00 0.00 0.00 62 1006.8
20260505054559 38 279 1.0 4.0 0.00 0.00 0.00 64 1006.9
20260505054056 38 226 1.0 4.0 0.00 0.00 0.00 64 1006.7
20260505053557 37 252 2.0 4.0 0.00 0.00 0.00 64 1006.7
20260505053059 37 253 2.0 3.0 0.00 0.00 0.00 64 1006.8
20260505052555 37 236 2.0 3.0 0.00 0.00 0.00 63 1006.8
20260505052053 37 232 2.0 3.0 0.00 0.00 0.00 63 1006.8
20260505051601 37 226 1.0 2.0 0.00 0.00 0.00 63 1006.8
20260505051054 37 230 1.0 2.0 0.00 0.00 0.00 63 1006.7
20260505050554 38 234 1.0 2.0 0.00 0.00 0.00 62 1006.6
20260505041559 39 247 1.0 2.0 0.00 0.00 0.00 61 1006.8
20260505041056 39 221 0.0 2.0 0.00 0.00 0.00 60 1006.7
20260505040554 40 193 0.0 2.0 0.00 0.00 0.00 60 1006.7
20260505040104 41 0 0.0 2.0 0.00 0.00 0.00 58 1006.7
20260505035554 41 295 1.0 2.0 0.00 0.00 0.00 56 1006.7
20260505035053 41 308 1.0 2.0 0.00 0.00 0.00 56 1006.8
20260505034553 41 301 0.0 2.0 0.00 0.00 0.00 55 1006.7
20260505034053 42 293 0.0 2.0 0.00 0.00 0.00 55 1006.8
20260505033553 42 295 1.0 2.0 0.00 0.00 0.00 54 1006.7
20260505033057 42 257 1.0 4.0 0.00 0.00 0.00 53 1006.8
20260505032556 43 298 1.0 4.0 0.00 0.00 0.00 52 1006.7
20260505032053 43 294 2.0 4.0 0.00 0.00 0.00 51 1006.8
20260505031601 44 288 2.0 4.0 0.00 0.00 0.00 51 1006.7
20260505031057 44 283 2.0 5.0 0.00 0.00 0.00 49 1006.7
20260505030555 44 274 2.0 5.0 0.00 0.00 0.00 49 1006.8
20260505030106 45 285 2.0 6.0 0.00 0.00 0.00 48 1006.7
20260505025553 45 289 2.0 6.0 0.00 0.00 0.00 48 1006.7
20260505025054 45 271 3.0 7.0 0.00 0.00 0.00 49 1006.6
20260505024556 45 252 3.0 7.0 0.00 0.00 0.00 49 1006.5
20260505024053 46 301 3.0 8.0 0.00 0.00 0.00 49 1006.4
20260505023553 46 317 4.0 8.0 0.00 0.00 0.00 50 1006.4
20260505023055 46 268 3.0 7.0 0.00 0.00 0.00 50 1006.1
20260505022553 46 287 3.0 7.0 0.00 0.00 0.00 49 1006.0
20260505022053 47 295 4.0 8.0 0.00 0.00 0.00 49 1005.7
20260505021557 47 284 4.0 8.0 0.00 0.00 0.00 49 1005.8
20260505021053 47 306 4.0 8.0 0.00 0.00 0.00 49 1005.6
20260505020557 48 270 4.0 8.0 0.00 0.00 0.00 49 1005.4
20260505020055 48 17 4.0 8.0 0.00 0.00 0.00 48 1005.4
20260505015553 48 243 2.0 7.0 0.00 0.00 0.00 49 1005.2
20260505015057 48 280 3.0 9.0 0.00 0.00 0.00 48 1005.1
20260505014606 48 296 4.0 9.0 0.00 0.00 0.00 47 1005.0
20260505014056 48 284 2.0 8.0 0.00 0.00 0.00 48 1004.9
20260505013555 49 294 3.0 8.0 0.00 0.00 0.00 47 1004.8
20260505013055 49 300 3.0 10.0 0.00 0.00 0.00 47 1004.7
20260505012553 49 306 5.0 10.0 0.00 0.00 0.00 47 1004.7
20260505012053 49 293 5.0 12.0 0.00 0.00 0.00 46 1004.6
20260505011557 50 321 5.0 12.0 0.00 0.00 0.00 46 1004.5
20260505011054 50 312 4.0 8.0 0.00 0.00 0.00 46 1004.4
20260505010553 50 321 4.0 10.0 0.00 0.00 0.00 47 1004.5
20260505010105 50 274 4.0 10.0 0.00 0.00 0.00 46 1004.3
20260505005553 50 305 5.0 10.0 0.00 0.00 0.00 45 1004.1
20260505005053 51 287 5.0 8.0 0.00 0.00 0.00 45 1004.0
20260505004559 51 295 5.0 9.0 0.00 0.00 0.00 46 1004.0
20260505004100 51 233 5.0 9.0 0.00 0.00 0.00 44 1003.9
20260505003552 51 290 5.0 9.0 0.00 0.00 0.00 44 1004.0
20260505003109 52 311 5.0 9.0 0.00 0.00 0.00 44 1003.8
20260505002558 52 239 4.0 9.0 0.00 0.00 0.00 44 1003.7
20260505002053 52 290 4.0 10.0 0.00 0.00 0.00 44 1003.8
20260505001610 52 291 5.0 15.0 0.00 0.00 0.00 46 1003.7
20260505001053 52 263 5.0 15.0 0.00 0.00 0.00 44 1003.6
20260505000553 53 319 6.0 12.0 0.00 0.00 0.00 44 1003.4
20260505000100 53 278 6.0 13.0 0.00 0.00 0.00 44 1003.3
20260504235553 53 290 6.0 15.0 0.00 0.00 0.00 45 1003.4
20260504235053 54 290 5.0 15.0 0.00 0.00 0.00 43 1003.3
20260504234602 54 287 7.0 15.0 0.00 0.00 0.00 43 1003.3
20260504234053 55 296 5.0 12.0 0.00 0.00 0.00 43 1003.1
20260504233553 55 289 5.0 12.0 0.00 0.00 0.00 43 1003.1
20260504233056 55 288 8.0 12.0 0.00 0.00 0.00 43 1003.1
20260504232554 55 309 5.0 11.0 0.00 0.00 0.00 42 1003.0
20260504232055 55 286 5.0 13.0 0.00 0.00 0.00 42 1003.0
20260504231559 56 261 5.0 13.0 0.00 0.00 0.00 43 1002.9
20260504231053 56 288 6.0 12.0 0.00 0.00 0.00 42 1002.9
20260504230557 57 296 5.0 12.0 0.00 0.00 0.00 41 1002.8
20260504230101 57 293 8.0 16.0 0.00 0.00 0.00 41 1002.6
20260504225554 57 283 7.0 16.0 0.00 0.00 0.00 41 1002.5
20260504225053 58 304 8.0 16.0 0.00 0.00 0.00 41 1002.5
20260504224559 58 283 6.0 13.0 0.00 0.00 0.00 40 1002.3
20260504224055 58 295 9.0 14.0 0.00 0.00 0.00 40 1002.3
20260504223556 58 292 6.0 15.0 0.00 0.00 0.00 40 1002.2
20260504223101 58 293 8.0 15.0 0.00 0.00 0.00 40 1002.1
20260504222553 58 300 9.0 15.0 0.00 0.00 0.00 39 1001.9
20260504222052 59 303 7.0 13.0 0.00 0.00 0.00 39 1001.9
20260504221556 59 271 6.0 13.0 0.00 0.00 0.00 40 1002.0
20260504221052 59 323 7.0 15.0 0.00 0.00 0.00 38 1001.7
20260504220559 59 300 8.0 15.0 0.00 0.00 0.00 41 1001.6
20260504220055 59 250 9.0 15.0 0.00 0.00 0.00 39 1001.5
20260504215556 60 293 7.0 14.0 0.00 0.00 0.00 41 1001.4
20260504215054 60 293 8.0 14.0 0.00 0.00 0.00 40 1001.4
20260504214605 60 293 7.0 16.0 0.00 0.00 0.00 38 1001.4
20260504214053 60 315 8.0 16.0 0.00 0.00 0.00 37 1001.3
20260504213553 61 303 6.0 15.0 0.00 0.00 0.00 37 1001.2
20260504213055 60 286 6.0 15.0 0.00 0.00 0.00 40 1001.3
20260504212556 61 291 8.0 15.0 0.00 0.00 0.00 38 1001.3
20260504212056 60 288 9.0 16.0 0.00 0.00 0.00 39 1001.3
20260504211554 61 291 9.0 16.0 0.00 0.00 0.00 37 1001.3
20260504211053 61 269 7.0 14.0 0.00 0.00 0.00 39 1001.1
20260504210553 60 283 8.0 18.0 0.00 0.00 0.00 39 1001.3
20260504210105 60 310 8.0 18.0 0.00 0.00 0.00 42 1001.1
20260504205552 60 253 8.0 16.0 0.00 0.00 0.00 40 1001.1
20260504205056 60 305 8.0 16.0 0.00 0.00 0.00 42 1001.3
20260504204611 60 246 9.0 14.0 0.00 0.00 0.00 41 1001.2
20260504204053 60 289 7.0 17.0 0.00 0.00 0.00 42 1001.4
20260504203553 59 315 8.0 17.0 0.00 0.00 0.00 40 1001.3
20260504203127 60 319 8.0 18.0 0.00 0.00 0.00 40 1001.5
20260504202553 59 249 9.0 18.0 0.00 0.00 0.00 38 1001.4
20260504202053 60 290 7.0 14.0 0.00 0.00 0.00 37 1001.4
20260504201558 60 288 9.0 16.0 0.00 0.00 0.00 34 1001.3
20260504201053 61 323 10.0 16.0 0.00 0.00 0.00 33 1001.1
20260504200553 62 299 8.0 16.0 0.00 0.00 0.00 34 1000.9
20260504200057 62 285 7.0 16.0 0.00 0.00 0.00 36 1001.0
20260504195552 62 289 9.0 18.0 0.00 0.00 0.00 32 1001.0
20260504195052 61 277 8.0 18.0 0.00 0.00 0.00 32 1000.7
20260504194556 62 297 8.0 18.0 0.00 0.00 0.00 33 1000.7
20260504194054 62 291 12.0 18.0 0.00 0.00 0.00 33 1000.7
20260504193553 63 321 9.0 17.0 0.00 0.00 0.00 32 1000.7
20260504193057 64 305 9.0 17.0 0.00 0.00 0.00 30 1000.6
20260504192554 63 297 7.0 17.0 0.00 0.00 0.00 33 1000.6
20260504192053 63 317 11.0 20.0 0.00 0.00 0.00 33 1000.6
20260504191557 63 319 11.0 20.0 0.00 0.00 0.00 31 1000.6
20260504191053 63 329 9.0 17.0 0.00 0.00 0.00 33 1000.3
20260504190554 63 301 8.0 15.0 0.00 0.00 0.00 35 1000.5
20260504190058 62 298 9.0 15.0 0.00 0.00 0.00 34 1000.4
20260504185557 63 291 7.0 14.0 0.00 0.00 0.00 35 1000.2
20260504185056 63 271 6.0 13.0 0.00 0.00 0.00 36 1000.0
20260504184559 63 270 8.0 14.0 0.00 0.00 0.00 37 1000.2
20260504184057 62 290 9.0 14.0 0.00 0.00 0.00 39 1000.1
20260504183558 62 306 6.0 12.0 0.00 0.00 0.00 38 999.9
20260504183104 62 275 7.0 15.0 0.00 0.00 0.00 37 1000.0
20260504182556 62 298 7.0 15.0 0.00 0.00 0.00 36 1000.0
20260504182054 62 211 8.0 15.0 0.00 0.00 0.00 38 999.9
20260504181608 63 305 7.0 13.0 0.00 0.00 0.00 38 999.8
20260504181056 63 323 4.0 15.0 0.00 0.00 0.00 40 999.8
20260504180556 63 63 7.0 17.0 0.00 0.00 0.00 39 999.8
20260504180116 62 296 8.0 17.0 0.00 0.00 0.00 38 999.7
20260504175556 62 288 8.0 15.0 0.00 0.00 0.00 43 999.6
20260504175057 62 316 8.0 15.0 0.00 0.00 0.00 40 999.5
20260504174557 61 261 8.0 16.0 0.00 0.00 0.00 42 999.6
20260504174057 61 245 7.0 16.0 0.00 0.00 0.00 45 999.5
20260504173557 61 103 8.0 14.0 0.00 0.00 0.00 40 999.5
20260504173107 61 276 8.0 15.0 0.00 0.00 0.00 40 999.6
20260504172556 61 226 9.0 15.0 0.00 0.00 0.00 38 999.5
20260504172056 62 266 5.0 13.0 0.00 0.00 0.00 38 999.6
20260504171602 62 196 8.0 13.0 0.00 0.00 0.00 38 999.4
20260504171054 62 289 8.0 13.0 0.00 0.00 0.00 39 999.3
20260504170556 63 285 5.0 12.0 0.00 0.00 0.00 42 999.3
20260504160103 62 302 6.0 11.0 0.00 0.00 0.00 41 999.3
20260504151052 62 302 5.0 12.0 0.00 0.00 0.00 41 998.7
20260504150553 63 302 4.0 11.0 0.00 0.00 0.00 44 998.7
20260504141052 61 287 8.0 13.0 0.00 0.00 0.00 51 998.3
20260504140552 61 307 7.0 13.0 0.00 0.00 0.00 51 998.3
20260504130554 60 237 9.0 14.0 0.00 0.00 0.00 49 998.3